TimeCST,TemperatureF,Dew PointF,Humidity,Sea Level PressureIn,VisibilityMPH,Wind Direction,Wind SpeedMPH,Gust SpeedMPH,PrecipitationIn,Events,Conditions,WindDirDegrees,DateUTC
12:53 AM,37.0,17.1,44,29.91,10.0,NNW,4.6,-,N/A,,Clear,340,2012-12-07 06:53:00
1:53 AM,37.0,17.1,44,29.89,10.0,North,4.6,-,N/A,,Clear,360,2012-12-07 07:53:00
2:53 AM,36.0,19.0,50,29.90,10.0,NNW,3.5,-,N/A,,Clear,330,2012-12-07 08:53:00
3:53 AM,36.0,17.1,46,29.88,10.0,NNW,4.6,-,N/A,,Clear,340,2012-12-07 09:53:00
4:53 AM,33.1,17.1,52,29.88,10.0,NW,5.8,-,N/A,,Clear,320,2012-12-07 10:53:00
5:53 AM,28.0,16.0,61,29.90,10.0,West,5.8,-,N/A,,Clear,270,2012-12-07 11:53:00
6:53 AM,30.0,18.0,61,29.91,10.0,West,5.8,-,N/A,,Clear,280,2012-12-07 12:53:00
7:53 AM,28.0,16.0,61,29.92,10.0,WSW,3.5,-,N/A,,Clear,240,2012-12-07 13:53:00
8:53 AM,32.0,16.0,52,29.91,10.0,Calm,Calm,-,N/A,,Clear,0,2012-12-07 14:53:00
9:53 AM,39.9,19.0,43,29.89,10.0,Calm,Calm,-,N/A,,Clear,0,2012-12-07 15:53:00
10:53 AM,45.0,21.9,40,29.88,10.0,Variable,5.8,-,N/A,,Clear,0,2012-12-07 16:53:00
11:53 AM,48.0,21.9,36,29.84,10.0,SSW,5.8,-,N/A,,Clear,200,2012-12-07 17:53:00
12:53 PM,52.0,23.0,32,29.79,10.0,South,9.2,-,N/A,,Clear,190,2012-12-07 18:53:00
1:53 PM,55.9,26.1,32,29.75,10.0,South,8.1,-,N/A,,Clear,190,2012-12-07 19:53:00
2:53 PM,57.0,26.1,30,29.74,10.0,Calm,Calm,-,N/A,,Clear,0,2012-12-07 20:53:00
3:53 PM,57.9,26.1,30,29.75,10.0,Calm,Calm,-,N/A,,Clear,0,2012-12-07 21:53:00
4:53 PM,55.0,25.0,31,29.79,10.0,NE,6.9,-,N/A,,Clear,50,2012-12-07 22:53:00
5:53 PM,48.0,24.1,39,29.84,10.0,NE,4.6,-,N/A,,Clear,50,2012-12-07 23:53:00
7:53 PM,42.1,24.1,49,29.91,10.0,NE,9.2,-,N/A,,Clear,50,2012-12-08 01:53:00
8:53 PM,39.0,23.0,53,29.93,10.0,NNE,5.8,-,N/A,,Clear,30,2012-12-08 02:53:00
9:53 PM,35.1,21.0,57,29.94,10.0,North,4.6,-,N/A,,Clear,360,2012-12-08 03:53:00
10:53 PM,33.1,21.9,64,29.95,10.0,North,4.6,-,N/A,,Clear,350,2012-12-08 04:53:00
11:53 PM,32.0,21.9,66,29.95,10.0,North,4.6,-,N/A,,Clear,360,2012-12-08 05:53:00